GFSFLT1_925_temp_108.txt.gz
Temp
18 19 19 18 17 18 18 17 16 16 15 14 14 14 14 14 14 14 14 14 13 14 14 13 13 13 13 14 15 14 15 14
16 15 16 16 16 17 17 16 16 14 14 14 14 14 14 14 14 14 13 13 13 14 13 13 13 14 13 14 14 14 13 13
14 13 13 14 14 14 15 15 15 14 13 14 14 14 14 14 14 14 13 13 13 13 13 12 13 12 12 13 13 13 12 14
15 13 13 13 13 13 14 15 14 13 13 13 13 13 14 14 14 14 13 13 13 13 12 12 12 12 13 13 14 14 12 13
16 14 13 13 13 13 14 14 13 13 13 13 13 13 13 13 14 14 14 13 12 12 13 13 13 13 13 13 14 15 13 13
17 15 14 13 12 13 13 12 13 13 13 14 13 12 13 14 14 14 13 12 12 12 13 13 13 13 13 14 14 15 15 14
16 15 14 13 12 12 12 12 13 13 13 14 12 12 13 13 13 13 12 11 11 12 12 13 13 13 14 14 15 15 16 15
14 13 12 13 12 12 12 12 12 12 13 13 13 12 13 13 13 13 12 12 12 11 12 12 13 14 14 15 15 16 16 15
14 14 13 13 12 12 12 12 12 12 12 13 13 13 13 13 13 13 12 12 12 11 12 12 13 14 14 14 15 15 15 15
14 14 13 13 13 12 12 12 12 12 12 12 13 13 13 13 13 13 13 12 12 12 13 12 12 13 14 13 14 13 14 14
14 14 12 13 12 12 12 12 12 12 11 12 13 13 12 13 13 12 12 12 12 12 12 11 11 11 12 13 13 12 13 13
14 14 12 12 12 12 13 12 12 12 12 12 12 12 12 12 12 12 12 12 12 12 12 12 11 11 11 11 11 11 12 12
15 13 13 12 12 12 12 12 12 12 12 12 12 12 12 12 12 12 12 12 12 12 12 12 11 11 12 11 11 11 11 11
14 14 14 13 12 12 12 12 12 13 12 12 12 12 11 11 12 12 12 12 11 12 12 11 11 12 12 12 12 12 12 12
14 13 13 13 13 13 13 13 13 13 13 12 12 12 12 11 11 11 12 11 11 11 11 11 11 11 11 11 11 11 11 12
13 13 12 12 12 12 13 13 13 13 13 12 12 13 13 12 11 11 11 11 11 11 11 11 11 11 11 11 11 11 12 11
12 12 11 11 10 10 10 11 13 13 13 13 13 12 12 13 13 12 11 11 11 11 11 11 11 11 11 12 11 12 12 12
11 11 10 9 8 8 8 9 10 12 12 12 12 13 12 12 12 12 12 11 11 11 11 11 11 11 11 11 11 12 12 11
9 9 8 7 6 5 6 7 8 9 12 12 12 12 12 12 12 11 11 11 11 11 11 11 11 11 11 11 11 11 11 9

GFSFLT1_925_temp_114.txt.gz
Temp
29 29 28 26 25 24 22 20 19 17 16 15 16 16 15 15 15 15 15 15 14 14 14 15 14 14 15 14 15 17 17 17
29 29 27 24 23 22 21 20 19 15 15 15 15 15 15 15 15 14 14 14 14 14 14 14 14 14 15 14 15 17 17 17
29 28 26 22 23 21 21 20 19 15 15 16 16 15 14 14 14 14 14 14 14 14 14 14 14 14 14 14 15 16 17 17
27 27 26 24 22 21 20 20 19 16 17 16 17 16 15 15 15 14 14 14 14 14 14 14 14 13 13 13 15 16 16 16
27 27 27 25 21 19 19 20 19 18 18 17 18 18 17 16 16 15 14 14 14 14 13 13 13 13 13 13 14 16 16 16
25 26 27 25 21 18 16 17 17 17 18 18 18 18 18 17 16 16 15 14 14 14 13 13 13 13 12 13 14 15 16 17
24 24 23 24 19 16 15 16 16 15 16 17 17 17 16 16 16 15 15 14 13 13 13 13 12 12 12 12 13 14 16 17
24 24 23 22 19 15 14 16 15 13 14 15 16 16 15 15 15 16 14 13 13 13 13 12 12 12 11 12 12 14 15 16
22 22 21 20 16 15 14 16 14 14 15 15 15 15 15 15 17 16 13 13 13 12 12 11 12 11 12 11 12 13 14 16
21 20 20 18 16 15 14 14 14 14 16 16 16 15 15 16 16 14 13 12 12 11 10 11 11 11 11 11 11 12 13 15
18 19 18 16 15 14 13 13 14 14 15 15 15 15 15 15 14 13 13 12 11 10 10 10 10 10 10 11 11 12 13 13
18 16 15 14 14 13 13 13 14 14 14 14 15 14 15 14 14 13 13 12 11 10 11 11 10 10 10 11 12 12 13 13
18 17 13 11 13 13 12 12 13 13 13 13 13 14 14 13 12 12 12 12 11 11 11 11 11 11 11 11 12 13 13 13
19 18 15 11 10 12 12 12 12 13 13 12 13 13 13 14 13 12 12 12 11 11 11 10 10 11 12 12 12 13 13 13
18 16 14 11 9 8 9 11 13 13 12 13 13 14 14 14 14 13 12 12 12 11 11 11 10 10 11 12 13 12 12 12
16 15 12 10 9 8 8 8 9 12 13 13 14 14 14 13 13 13 13 12 12 12 12 11 11 10 10 10 11 11 11 11
15 14 13 10 7 7 7 7 8 9 11 14 14 13 13 13 13 13 13 13 12 12 12 12 11 11 11 11 11 10 11 11
13 13 12 10 7 5 6 6 7 8 8 12 13 13 12 13 13 12 12 12 12 12 11 11 11 12 12 11 11 11 11 11
12 12 10 9 9 6 6 5 5 6 6 6 7 10 12 13 12 13 13 12 12 11 12 11 11 11 11 11 11 11 11 10

GFSFLT1_925_temp_120.txt.gz
Temp
31 31 32 32 32 31 29 27 25 23 22 20 20 20 20 19 18 18 18 18 17 17 17 17 17 16 15 15 16 15 15 16
31 31 31 31 31 30 29 26 25 23 22 21 21 21 18 19 19 18 17 17 17 17 16 17 17 16 15 15 15 15 14 16
30 30 31 30 30 30 28 27 25 23 22 21 21 21 17 18 17 17 17 17 17 16 16 16 17 15 15 14 14 14 14 15
29 29 29 30 29 28 27 26 26 24 23 21 20 19 18 17 17 17 17 16 17 16 16 16 16 15 15 14 14 14 14 15
29 29 28 28 28 27 26 25 26 24 22 19 19 18 19 18 17 17 17 16 16 15 15 15 15 15 14 14 14 15 14 15
29 29 29 29 29 27 26 25 25 24 19 18 19 19 19 18 18 17 16 16 16 15 15 14 14 14 14 14 14 14 14 14
28 28 29 28 26 25 25 24 24 20 18 18 19 20 19 19 19 18 16 17 16 15 14 14 14 14 14 14 14 14 13 14
27 27 27 27 24 23 21 21 23 20 19 18 19 20 21 21 20 19 17 17 16 15 14 14 14 14 14 14 14 14 13 13
25 25 24 24 23 20 18 17 19 20 19 19 19 20 20 21 20 19 18 18 17 16 15 14 14 14 14 14 13 13 14 13
23 22 21 19 19 19 17 16 17 17 18 18 19 20 20 20 20 19 19 18 16 16 15 14 14 14 13 13 13 13 13 13
20 19 17 17 17 16 15 15 15 16 16 17 17 18 19 19 18 18 18 17 15 14 13 13 13 13 13 13 13 13 13 13
19 17 16 13 14 14 15 14 14 14 15 16 16 17 18 18 18 17 17 15 14 13 13 12 12 12 12 13 12 12 13 13
18 16 14 12 11 10 10 13 13 14 14 15 16 16 17 17 17 16 15 14 13 12 12 12 11 11 11 12 12 12 13 13
18 16 14 12 10 9 9 9 10 12 13 14 15 16 16 16 16 15 15 13 13 12 12 11 11 11 11 11 12 12 12 13
17 16 14 12 10 9 8 8 8 10 12 13 14 14 15 15 15 15 14 13 13 12 11 11 11 11 11 11 11 12 12 12
17 15 14 12 10 9 8 7 7 8 9 11 12 13 14 15 15 15 14 13 12 12 11 11 11 11 11 11 11 12 12 12
16 16 15 13 11 9 7 6 6 6 7 6 7 11 14 15 15 15 14 13 12 12 11 11 11 11 11 11 11 11 12 12
15 14 14 13 12 9 7 5 5 5 5 5 6 7 9 11 14 15 14 13 12 12 11 11 11 11 11 11 11 11 11 12
14 14 13 12 11 10 9 6 4 3 3 3 4 5 5 7 11 13 15 14 13 12 12 11 11 11 11 11 11 11 11 11

GFSFLT1_925_temp_126.txt.gz
Temp
27 28 27 28 28 27 25 23 23 21 20 19 19 20 20 20 20 19 19 18 18 18 18 17 17 17 17 17 17 16 17 16
26 27 27 27 28 26 25 22 22 20 18 18 18 19 20 20 20 20 19 19 18 18 18 17 17 17 17 17 16 16 15 16
23 24 25 26 26 26 24 22 22 20 20 19 19 19 19 19 19 19 19 18 18 18 18 17 17 16 16 16 16 14 15 15
24 24 24 26 25 25 23 22 21 20 20 18 19 18 17 17 18 19 19 19 18 18 18 18 17 16 15 15 15 15 15 14
23 24 22 24 23 24 24 22 20 20 19 18 18 18 17 18 17 17 18 19 18 18 18 17 17 16 15 14 15 15 14 14
23 24 22 26 26 24 22 22 20 20 19 19 18 18 18 18 16 17 17 19 18 17 17 17 17 15 15 14 14 14 14 14
24 24 25 22 22 21 20 20 20 19 19 19 19 18 17 16 16 16 16 17 17 17 16 16 17 16 15 15 14 14 14 14
22 17 15 14 15 17 19 19 18 18 19 19 19 18 17 18 17 16 16 16 15 16 16 16 16 16 15 15 14 14 14 14
14 14 14 14 14 15 16 17 17 18 18 18 18 18 18 18 18 17 18 18 17 17 16 16 16 16 15 15 14 14 14 14
13 13 12 12 12 12 14 16 16 16 17 17 17 17 18 18 18 18 18 17 17 17 16 16 16 15 15 14 14 14 14 14
13 12 11 11 11 11 13 14 14 15 16 16 17 17 17 18 18 18 17 17 16 17 17 17 16 16 15 14 14 14 13 13
12 11 11 10 10 10 10 11 12 13 14 15 16 17 18 18 18 18 17 17 17 17 17 16 16 15 14 14 13 13 13 13
11 11 10 9 9 9 8 9 10 11 13 14 15 15 16 17 17 17 17 17 17 16 16 16 16 15 14 13 13 13 13 13
10 10 9 8 7 7 7 7 8 9 12 13 13 14 15 15 16 16 16 16 16 15 16 15 14 13 13 13 13 13 13 13
10 9 8 7 6 6 6 6 6 7 8 10 11 12 13 14 15 15 15 15 15 15 15 14 14 13 12 12 11 11 11 12
10 9 9 7 6 6 4 4 4 5 5 6 7 9 10 13 13 14 15 15 15 15 14 14 13 12 11 11 11 11 11 11
10 10 9 8 6 5 4 3 3 3 3 4 4 6 8 10 12 13 14 14 14 13 13 13 12 12 11 11 11 11 11 11
8 8 7 7 5 4 3 3 3 3 2 2 3 3 4 6 8 10 13 13 13 13 13 12 12 12 11 11 11 11 11 11
6 6 6 6 4 3 2 2 2 2 2 1 2 2 2 3 5 6 8 11 12 13 12 11 12 12 12 11 11 11 11 11

GFSFLT1_925_temp_129.txt.gz
Temp
23 25 26 26 26 26 24 22 21 20 19 18 17 17 18 18 18 18 19 19 18 18 18 18 17 17 17 17 17 16 17 16
23 23 25 25 24 25 24 22 20 19 18 17 17 17 18 18 18 19 19 19 18 18 18 17 17 17 17 16 16 16 15 15
21 22 23 24 25 24 24 22 21 20 18 18 18 17 17 17 17 17 19 19 18 18 18 17 17 16 16 16 16 15 14 15
21 22 23 23 23 24 22 22 21 20 19 18 18 17 17 17 17 17 18 18 18 18 18 17 17 16 16 16 16 16 14 14
20 22 22 23 25 24 23 22 21 20 19 18 18 18 17 18 17 17 17 18 18 18 18 18 18 17 16 17 17 15 15 14
20 21 23 24 25 23 22 22 21 20 18 18 18 19 18 17 17 17 17 17 18 18 19 18 17 16 16 16 15 14 15 15
20 21 23 21 23 27 22 20 20 20 18 18 18 19 17 17 17 17 16 16 16 17 19 18 17 16 15 16 16 15 14 14
16 19 20 17 18 19 19 19 19 19 18 18 18 18 17 17 16 16 16 16 16 16 18 17 17 16 16 15 15 16 14 14
13 14 13 13 13 14 15 17 17 18 18 17 18 17 17 18 17 16 16 16 16 17 17 17 17 16 15 15 15 15 14 14
13 12 13 13 12 12 13 15 16 17 18 17 17 17 17 17 17 17 17 17 16 17 18 17 16 16 16 15 14 14 14 14
12 11 11 10 11 11 12 12 13 15 16 16 17 17 17 18 17 17 17 17 17 16 16 16 16 16 15 15 14 14 14 14
12 10 10 9 9 9 9 10 11 13 14 15 16 16 16 17 17 17 17 17 17 16 16 16 16 16 16 15 15 14 14 14
10 9 8 8 7 7 7 8 9 11 13 14 15 15 16 16 16 17 17 17 16 17 16 16 15 15 15 14 14 14 13 13
9 8 7 7 6 6 6 6 6 8 10 11 12 14 14 14 15 15 15 15 16 16 16 16 16 15 15 15 14 13 13 13
9 8 7 6 5 4 4 4 5 6 7 7 8 10 12 13 14 15 15 16 15 15 16 16 15 14 14 14 13 13 13 12
7 7 6 6 5 4 3 3 3 4 4 5 5 6 9 11 13 13 15 15 16 16 15 15 14 15 14 13 12 12 11 11
4 6 6 5 4 3 2 3 2 3 3 3 3 5 6 7 9 12 13 14 14 14 14 14 14 14 13 13 12 11 11 11
3 3 4 4 3 2 1 2 2 2 1 1 2 2 3 5 6 9 10 11 13 13 13 13 13 13 13 12 11 11 11 11
2 2 2 2 2 1 1 0 1 1 0 0 1 1 2 2 4 5 7 8 9 12 13 13 12 12 12 12 11 10 11 11

GFSFLT1_925_temp_132.txt.gz
Temp
18 19 20 21 22 23 25 22 20 19 18 17 16 16 16 16 16 17 17 17 18 18 18 18 17 17 17 16 16 16 16 16
17 18 19 21 22 22 22 21 20 17 17 17 16 16 16 16 16 17 17 17 17 18 18 17 17 17 16 16 16 16 15 14
17 18 19 20 22 23 21 21 19 18 18 17 17 17 16 16 16 16 16 17 17 18 18 17 17 16 15 16 16 15 15 14
16 17 17 19 20 21 23 23 20 19 18 17 18 17 17 16 16 16 17 16 17 18 18 18 17 16 15 15 16 16 14 14
16 16 17 18 20 22 22 23 22 20 18 18 18 18 18 17 17 16 16 17 17 18 18 17 17 16 15 15 15 15 15 14
16 16 17 19 21 21 22 23 22 20 18 18 18 18 18 18 17 17 16 16 17 18 17 17 18 17 16 16 15 15 15 15
15 16 17 18 20 21 22 22 21 20 18 18 18 18 18 17 17 17 16 16 16 17 17 17 17 17 17 17 17 16 15 15
11 11 11 15 17 18 20 19 20 20 19 18 18 18 18 17 18 17 16 16 16 16 17 16 16 17 17 17 17 16 15 15
13 13 13 11 13 15 17 19 20 20 18 18 17 18 17 17 17 17 17 16 16 16 16 16 16 18 17 16 16 16 16 15
11 11 10 11 11 12 15 16 16 18 18 18 17 18 17 17 17 17 16 16 16 16 16 16 16 17 17 16 15 15 15 15
10 10 9 9 9 9 11 13 13 15 17 17 17 17 17 16 16 16 16 16 16 16 16 16 16 17 17 15 15 15 14 14
8 8 8 7 7 7 7 9 11 11 13 15 15 16 16 15 15 15 16 16 17 16 16 17 16 16 16 15 15 14 14 14
6 6 7 6 5 5 5 6 7 8 10 12 14 15 17 18 16 16 15 16 16 16 15 16 17 16 15 15 15 14 14 14
4 3 4 5 4 4 4 4 4 5 8 8 9 12 14 14 15 15 15 15 15 15 15 15 16 16 16 16 15 13 14 13
2 2 3 3 3 3 3 3 3 4 4 5 6 7 9 10 13 14 14 15 15 15 14 14 16 16 15 15 15 14 14 14
2 2 2 3 2 2 2 2 2 2 3 3 3 5 7 9 11 12 13 14 14 14 14 14 15 15 15 14 14 13 13 13
1 1 1 2 2 1 1 1 1 1 1 1 2 3 4 5 7 9 11 12 13 14 14 14 14 14 14 14 15 13 12 12
1 0 -0 -0 1 0 0 -0 0 0 0 0 0 1 2 3 3 5 7 9 11 12 13 14 13 13 13 13 13 12 12 11
1 -0 -1 -1 -1 0 -0 -1 -1 -1 -1 -1 -1 -0 0 2 2 3 4 6 8 9 11 12 13 12 12 11 12 11 11 11

GFSFLT1_925_temp_138.txt.gz
Temp
21 21 20 19 19 20 19 19 20 20 21 20 21 20 21 21 21 20 17 16 18 18 20 19 18 19 18 17 15 18 18 17
21 19 19 18 18 19 20 19 19 19 21 21 21 21 21 20 21 20 18 16 17 18 19 18 16 18 17 16 17 19 19 19
20 18 16 16 17 18 19 19 20 20 21 22 21 21 21 21 20 19 18 17 16 18 19 18 15 17 17 16 18 19 18 17
17 16 14 14 14 18 19 20 20 20 21 22 21 20 20 20 20 19 19 17 16 17 18 18 16 17 16 15 18 18 17 15
13 12 11 10 11 12 16 19 19 20 20 22 22 20 20 20 20 19 19 18 16 16 17 18 16 17 17 15 18 18 19 16
9 8 8 7 7 9 11 18 19 19 20 20 22 21 20 21 20 20 19 17 16 15 16 16 16 16 17 17 16 18 18 19
7 5 5 5 5 6 9 17 18 19 19 20 21 21 21 22 20 19 19 18 16 15 15 16 16 16 16 16 16 17 19 18
6 5 3 4 4 5 7 15 18 19 19 20 21 21 20 21 21 20 19 18 16 16 15 15 16 16 16 16 15 16 17 18
6 4 2 3 3 3 5 8 18 19 20 20 21 21 22 22 23 22 20 18 16 16 16 15 16 16 16 15 16 15 17 17
5 3 1 3 2 3 4 5 11 20 20 20 21 21 22 22 22 22 21 19 17 16 16 15 16 16 16 16 16 16 16 17
4 3 1 2 2 2 2 3 5 10 16 21 21 21 21 21 21 21 21 20 18 17 16 16 16 16 16 16 16 16 16 16
3 2 0 1 1 1 1 2 4 6 7 10 16 19 21 21 20 20 19 18 18 17 16 16 16 16 16 16 16 16 16 15
3 1 -0 0 1 1 1 1 2 4 5 6 8 11 14 15 17 18 18 19 18 16 16 16 16 15 15 16 16 16 15 15
3 1 -0 -0 -0 -0 0 1 1 2 4 4 4 7 9 11 13 15 16 16 16 16 16 15 15 15 15 15 16 15 15 15
2 0 -0 -1 -1 -1 -0 0 0 1 2 3 3 4 5 8 10 13 14 15 15 15 15 15 15 15 15 15 15 15 15 15
2 0 -0 -1 -1 -1 -1 -0 -0 0 1 2 1 3 3 5 7 11 12 13 14 15 15 14 15 16 15 15 15 15 15 14
2 1 -0 -1 -1 -1 -1 -1 -0 -0 -0 -0 0 1 3 2 4 5 9 10 12 13 14 14 14 14 14 14 15 14 14 14
2 1 0 -0 -1 -1 -1 -0 -0 -0 -1 -1 -1 0 1 0 2 3 5 7 7 9 11 12 12 13 13 14 14 14 14 13
3 2 1 0 -0 -0 -1 -0 0 0 0 -0 -1 -1 -0 -0 0 1 2 3 4 5 7 8 9 8 10 12 12 13 13 12

GFSFLT1_925_temp_141.txt.gz
Temp
22 22 21 20 19 18 18 18 19 20 20 20 22 21 23 23 23 23 20 18 19 20 21 22 21 21 21 20 19 19 19 20
20 17 17 16 16 15 16 16 16 20 21 20 21 23 21 22 23 23 21 18 19 20 21 21 20 21 21 19 18 19 20 20
18 16 14 12 11 10 12 13 14 15 21 21 21 22 22 21 23 23 22 19 18 20 20 21 20 20 20 20 19 19 20 19
15 13 11 9 9 9 9 9 10 13 15 21 22 22 23 22 21 22 22 20 18 20 20 21 20 20 20 19 18 19 20 19
13 12 9 8 7 7 6 6 7 10 14 18 22 23 24 22 20 21 22 20 18 19 20 21 18 19 20 18 18 19 20 19
12 10 9 7 5 5 4 4 5 9 12 16 21 22 24 23 21 20 21 20 20 18 20 20 18 18 19 19 18 19 20 18
11 9 8 6 4 4 3 3 4 7 11 16 21 21 23 24 22 20 20 21 19 18 18 19 20 18 19 18 18 19 19 20
10 9 6 4 3 2 2 2 3 6 11 18 20 20 20 23 21 20 20 19 20 18 17 18 19 18 18 19 17 18 19 19
10 8 5 3 2 2 1 2 3 4 10 19 20 20 21 22 21 19 18 18 19 18 17 17 18 18 18 18 18 18 19 19
9 7 5 2 2 1 1 1 2 3 7 14 20 20 20 22 21 21 18 20 18 19 17 16 17 17 17 17 17 17 18 18
8 6 3 2 2 1 1 1 2 3 5 7 17 20 21 22 21 20 19 20 20 18 17 16 16 16 17 17 16 17 17 18
8 6 2 1 2 1 1 1 1 2 3 5 7 11 15 22 22 21 17 19 19 18 17 16 16 16 16 16 16 16 16 17
7 5 2 1 1 0 0 0 1 1 3 3 5 6 9 11 13 16 20 20 19 18 17 16 16 16 16 16 16 16 16 17
6 3 1 -0 -0 -0 -0 -0 0 1 3 2 3 4 5 8 9 12 15 18 19 19 18 17 16 16 16 16 16 16 17 17
5 2 1 -0 -1 -1 -1 -1 -0 1 1 1 1 3 4 5 6 9 12 14 16 16 16 16 16 16 16 15 16 16 16 16
5 2 1 0 -1 -1 -1 -1 -0 0 0 1 1 1 3 3 4 5 7 11 13 15 15 15 15 15 15 15 15 15 15 15
5 4 2 1 0 -0 -1 -1 -1 -0 -0 -0 -0 0 1 2 3 3 5 6 11 13 14 15 15 14 15 15 15 14 15 15
6 5 3 2 1 1 0 -1 -1 0 -0 -0 -1 -0 0 0 2 2 3 4 5 8 9 10 10 10 13 14 14 15 14 14
6 5 4 3 2 1 1 0 -1 0 0 -0 -1 -0 -0 0 -0 1 2 2 2 2 4 4 3 4 7 12 13 14 14 14

GFSFLT1_925_temp_147.txt.gz
Temp
13 13 12 11 10 9 8 8 7 7 6 6 6 7 9 12 13 16 19 19 20 20 20 20 21 22 22 21 21 20 20 20
13 12 12 11 9 8 7 7 6 5 5 5 5 5 6 8 10 12 15 19 19 19 19 19 21 21 22 21 20 20 19 19
13 12 11 10 8 7 6 6 5 4 4 3 4 4 5 6 8 10 12 15 19 18 18 19 20 20 21 20 20 18 18 19
11 11 10 8 7 6 5 5 4 3 3 3 4 4 5 6 7 10 13 15 17 19 18 19 19 20 20 20 20 19 18 17
10 10 9 8 7 6 4 4 3 2 2 2 3 3 4 5 6 7 9 12 15 18 18 19 20 19 19 19 19 19 19 17
9 9 9 8 6 5 3 3 3 2 1 2 2 3 4 4 5 7 9 11 13 17 18 18 18 19 19 19 18 18 18 18
9 9 8 6 5 4 2 3 2 1 1 2 2 3 3 4 5 7 8 10 13 16 18 17 17 15 19 19 18 18 18 18
7 7 6 5 4 3 2 2 1 1 1 2 2 2 4 4 5 7 9 10 13 16 18 16 16 15 17 18 17 17 18 18
8 6 5 4 3 2 2 1 1 0 1 1 1 2 3 4 6 7 9 12 14 17 18 17 16 17 13 17 17 17 17 18
7 6 4 3 2 1 1 1 0 -0 0 1 1 2 3 4 5 8 12 14 16 18 18 17 16 17 15 15 18 17 17 17
6 5 4 3 2 1 1 1 0 -0 0 0 1 1 2 3 5 7 9 13 16 18 16 16 14 14 14 13 14 17 17 17
5 4 4 3 2 1 1 1 1 0 -0 0 1 1 2 3 4 5 7 12 13 16 16 14 13 14 13 12 11 15 16 17
5 4 3 2 2 1 1 1 1 0 0 0 1 1 1 2 2 4 5 8 12 13 15 15 13 13 14 12 14 12 17 17
5 4 2 2 1 1 1 1 1 0 0 0 0 0 0 1 1 3 4 6 7 9 12 12 12 11 13 12 11 14 16 17
5 2 2 3 2 1 1 1 1 1 0 0 0 0 0 -0 1 2 2 3 5 6 9 13 12 12 12 12 14 15 17 16
5 2 2 3 2 1 1 1 1 1 0 0 0 -0 -0 -1 -0 1 1 2 2 3 7 11 9 8 10 11 13 17 16 16
5 4 3 2 2 1 1 1 1 0 -0 -0 -0 -1 -1 -1 -1 0 1 0 1 1 2 3 6 5 4 12 10 14 15 15
5 4 4 3 2 1 1 1 0 0 0 0 -1 -1 -1 -2 -2 -1 -0 -0 -0 -0 -0 1 1 4 7 8 11 13 15 15
4 4 4 2 1 1 1 1 -0 -0 0 0 -1 -2 -2 -2 -3 -2 -1 -1 -1 -1 -1 -1 -1 1 6 8 11 13 13 15

GFSFLT1_925_temp_150.txt.gz
Temp
11 11 11 10 9 8 7 6 5 5 4 4 4 4 4 4 5 6 9 10 13 14 16 18 19 20 19 19 19 19 19 19
11 11 10 9 8 7 6 5 5 4 3 3 3 3 3 4 4 5 6 8 9 12 14 17 18 18 19 19 19 18 17 19
10 10 9 8 7 6 5 4 4 3 3 2 2 2 3 3 4 5 5 6 8 10 13 14 17 18 19 18 18 17 17 18
9 9 8 7 6 5 4 4 3 3 2 2 2 2 3 3 4 4 5 5 6 7 9 12 15 17 18 18 18 19 17 16
8 8 8 7 5 4 4 3 3 2 1 1 1 2 3 3 3 4 4 5 5 6 8 10 13 16 17 18 18 19 18 17
7 7 7 6 4 3 3 2 2 2 1 1 1 2 2 2 3 3 4 5 6 6 8 10 12 15 17 18 17 18 18 18
8 7 6 4 3 2 2 2 1 1 1 1 1 2 2 2 3 4 4 5 6 7 8 9 12 14 16 17 17 18 18 19
6 5 3 3 3 2 2 1 1 1 1 1 1 1 2 2 3 3 4 5 6 8 8 9 11 14 15 16 15 13 16 17
5 4 3 3 2 2 1 1 1 1 1 1 1 1 1 2 2 3 4 5 6 8 9 9 11 15 15 16 14 15 11 17
5 4 4 3 3 2 1 0 0 1 1 0 0 1 1 1 1 2 3 5 6 8 10 10 12 16 15 15 13 12 11 15
4 3 4 3 3 2 1 1 1 1 1 0 0 0 1 1 1 2 2 4 6 8 10 12 15 17 15 15 13 13 13 13
4 4 4 3 2 2 1 1 1 1 0 -0 0 1 0 1 0 1 1 3 4 7 11 14 16 16 16 14 13 14 13 12
4 4 4 2 2 1 1 1 1 0 0 -0 0 0 -0 0 -0 0 1 2 3 4 7 10 12 13 15 13 12 13 12 12
4 3 2 2 2 1 1 1 0 0 -0 -0 -0 -0 -1 -1 -1 -0 1 1 2 3 4 7 10 12 13 13 13 14 13 12
4 0 1 2 1 1 0 0 0 -0 -1 -0 -0 -1 -1 -1 -1 -1 -0 0 1 2 2 5 7 11 12 12 12 12 13 12
3 1 1 1 1 0 0 0 -0 -1 -1 0 -0 -1 -1 -1 -2 -2 -1 -0 -0 -0 1 2 2 1 2 7 11 11 11 11
3 2 2 1 0 -0 -0 -0 -1 -1 -0 -1 -0 -1 -2 -2 -2 -2 -2 -1 -1 -1 -1 -1 -0 -0 0 2 7 11 11 12
3 2 1 0 -0 -0 -0 -1 -1 -2 -1 -1 -1 -1 -2 -3 -3 -3 -3 -2 -1 -1 -2 -2 -2 -1 -0 2 3 8 12 13
2 2 0 -0 -1 -1 -1 -2 -2 -3 -2 -2 -2 -2 -3 -3 -4 -4 -4 -3 -2 -2 -2 -3 -2 -2 -2 3 9 10 13 14